Regional Weather Roundup
Issued by NWS

Home | Current Version | Previous Version | Graphics & Text | Print | Product List | Glossary On
Versions: 1 2 3 4 5 6 7 8 9 10 11 12 13 14 15 16 17 18 19 20 21 22 23 24 25 26 27 28 29 30 31 32 33 34 35 36 37 38 39 40 41 42 43 44 45 46 47 48 49 50
000
ASUS43 KLSX 050959
RWRMO

WEATHER SUMMARY FOR MISSOURI
NATIONAL WEATHER SERVICE SPRINGFIELD MO
500 AM CDT SUN JUL 05 2015

NOTE: "FAIR" INDICATES FEW OR NO CLOUDS BELOW 12,000 FEET WITH NO
       SIGNIFICANT WEATHER AND/OR OBSTRUCTIONS TO VISIBILITY.
       CURRENT SKY AND/OR WEATHER CONDITIONS ARE NOT AVAILABLE FOR
       CHILLICOTHE AND FARMINGTON.

MOZ001>031-035>038-043-044-053-054-051100-
...NORTHERN AND WESTERN MISSOURI...

CITY           SKY/WX    TMP DP  RH WIND       PRES   REMARKS
KANSAS CTY INT PTCLDY    68  64  87 SE9       29.97S
KANSAS C DTWN  PTCLDY    72  65  78 SE5       29.97R
LEE`S SUMMIT   CLEAR     69  65  86 SE6       29.99S
ST JOSEPH      PTCLDY    68  64  87 S5        29.96F FOG
CHILLICOTHE      N/A     65  63  93 CALM      30.01S
KIRKSVILLE     CLEAR     63  61  93 S5        30.04R FOG

$$
MOZ066>068-077>081-088>096-101>105-051100-
...SOUTHWEST MISSOURI...

CITY           SKY/WX    TMP DP  RH WIND       PRES   REMARKS
SPRINGFIELD    CLEAR     70  68  93 SE9       30.02S
JOPLIN         CLEAR     71  68  90 SE6       30.00R

$$
MOZ032>034-039>042-045>050-055>058-069>072-051100-
...CENTRAL MISSOURI...

CITY           SKY/WX    TMP DP  RH WIND       PRES   REMARKS
COLUMBIA       CLEAR     67  65  93 SE7       30.03R FOG
JEFFERSON CITY CLEAR     68  65  90 E5        30.02S FOG
ROLLA          CLEAR     67  66  97 SE7       30.04R FOG
SEDALIA        CLEAR     68  65  90 SE6       30.01F FOG
OSAGE BEACH    CLEAR     68  64  88 SE5       30.03R

$$
MOZ051-052-059>065-051100-
...EAST CENTRAL MISSOURI...

CITY           SKY/WX    TMP DP  RH WIND       PRES   REMARKS
ST LOUIS INTL  CLEAR     68  61  78 E3        30.05S HAZE
SPIRIT OF STL  CLEAR     64  63  96 CALM      30.03S FOG
ST CHARLES     CLEAR     66  65  96 E5        30.04R FOG

$$
MOZ072>076-082>087-097>100-106>115-051100-
...SOUTH CENTRAL AND SOUTHEAST MISSOURI...

CITY           SKY/WX    TMP DP  RH WIND       PRES   REMARKS
CAPE GIRARDEAU PTCLDY    67  66  97 CALM      30.04R FOG
FARMINGTON     CLOUDY    64  64 100 CALM      30.09S VSB 1/4
POPLAR BLUFF   FOG       69  68  96 CALM      30.03R VSB 1/4
WEST PLAINS    FOG       70  68  93 CALM      30.07R VSB 1/4

$$



USA.gov is the U.S. government's official web portal to all federal, state and local government web resources and services.